Weather History for KTRK - May, 2014

Change the Weather History Date:

Friday, May 23, 2014

  Actual Average Record
Temperature  
Mean Temperature 52 °F -  
Max Temperature 73 °F 69 °F 82 °F (1967)
Min Temperature 30 °F 33 °F 19 °F (2013)
Degree Days  
Heating Degree Days 14    
Growing Degree Days 2 (Base 50)    
Moisture  
Dew Point 34 °F    
Average Humidity 67    
Maximum Humidity 100    
Minimum Humidity 15    
Precipitation  
Precipitation 0.00 in - - ()
Sea Level Pressure  
Sea Level Pressure 30.18 in    
Wind  
Wind Speed 2 mph (WSW)    
Max Wind Speed 15 mph    
Max Gust Speed 21 mph    
Visibility 10 miles    
Events      
Averages and records for this station are not official NWS values.
T = Trace of Precipitation, MM = Missing Value Source: NWS Daily Summary

Daily Weather History Graph

Daily Weather History Graph

Search for Another Location

Airport or City:

Trip Planner

Search our weather history database for the weather conditions in past years. The results will help you decide how hot, cold, wet, or windy it might be!

Date:

Astronomy

May. 23, 2014 Rise Set
Actual Time 5:40 AM PDT 8:14 PM PDT
Civil Twilight 5:09 AM PDT 8:45 PM PDT
Nautical Twilight 4:31 AM PDT 9:24 PM PDT
Astronomical Twilight 3:48 AM PDT 10:07 PM PDT
Moon 2:36 AM PDT (5/23) 3:14 PM PDT (5/23)
Length of Visible Light 15h 35m
Length of Day
14h 33m
Waning Crescent, 26% of the Moon is Illuminated
May 23
Waning Crescent
May 28
New
Jun 5
First Quarter
Jun 12
Full
Jun 19
Last Quarter

Hourly Weather History & Observations

Time (PDT) Temp. Windchill Dew Point Humidity Pressure Visibility Wind Dir Wind Speed Gust Speed Precip Events Conditions
12:15 AM 35.6 °F - 32.0 °F 87% 30.22 in 10.0 mi Calm Calm - N/A   Clear
12:35 AM 37.4 °F - 32.0 °F 81% 30.22 in 10.0 mi Calm Calm - N/A   Clear
12:55 AM 37.4 °F - 32.0 °F 81% 30.22 in 10.0 mi Calm Calm - N/A   Clear
1:15 AM 37.4 °F 34.9 °F 32.0 °F 81% 30.21 in 10.0 mi East 3.5 mph - N/A   Clear
1:35 AM 33.8 °F - 32.0 °F 93% 30.21 in 10.0 mi Calm Calm - N/A   Clear
1:55 AM 35.6 °F - 32.0 °F 87% 30.21 in 10.0 mi Calm Calm - N/A   Clear
2:15 AM 33.8 °F - 32.0 °F 93% 30.22 in 10.0 mi Calm Calm - N/A   Clear
2:35 AM 32.0 °F - 32.0 °F 100% 30.22 in 10.0 mi Calm Calm - N/A   Clear
2:55 AM 32.0 °F - 32.0 °F 100% 30.21 in 10.0 mi Calm Calm - N/A   Clear
3:15 AM 35.6 °F - 33.8 °F 93% 30.22 in 10.0 mi Calm Calm - N/A   Clear
3:35 AM 32.0 °F 28.7 °F 32.0 °F 100% 30.21 in 10.0 mi ESE 3.5 mph - N/A   Clear
3:55 AM 32.0 °F - 32.0 °F 100% 30.21 in 10.0 mi Calm Calm - N/A   Clear
4:15 AM 32.0 °F - 32.0 °F 100% 30.21 in 10.0 mi Calm Calm - N/A   Clear
4:35 AM 33.8 °F - 32.0 °F 93% 30.21 in 10.0 mi Calm Calm - N/A   Clear
4:55 AM 32.0 °F - 32.0 °F 100% 30.21 in 10.0 mi Calm Calm - N/A   Clear
5:15 AM 32.0 °F - 32.0 °F 100% 30.21 in 10.0 mi Calm Calm - N/A   Clear
5:35 AM 32.0 °F - 30.2 °F 93% 30.22 in 1.2 mi Calm Calm - N/A   Mist
5:55 AM 30.2 °F - 30.2 °F 100% 30.22 in 7.0 mi Calm Calm - N/A   Clear
6:15 AM 30.2 °F - 30.2 °F 100% 30.22 in 7.0 mi Calm Calm - N/A   Clear
6:35 AM 32.0 °F - 32.0 °F 100% 30.22 in 10.0 mi Calm Calm - N/A   Clear
6:45 AM 33.8 °F - 33.8 °F 100% 30.22 in 10.0 mi Calm Calm - N/A   Clear
7:50 AM 41.0 °F - 35.6 °F 81% 30.23 in 10.0 mi Calm Calm - N/A   Clear
8:50 AM 46.4 °F - 37.4 °F 71% 30.27 in 10.0 mi Calm Calm - N/A   Clear
9:45 AM 55.4 °F - 37.4 °F 51% 30.22 in 10.0 mi Calm Calm - N/A   Clear
10:50 AM 62.6 °F - 33.8 °F 34% 30.21 in 10.0 mi NNE 6.9 mph - N/A   Partly Cloudy
11:45 AM 64.4 °F - 35.6 °F 34% 30.20 in 10.0 mi NNW 3.5 mph - N/A   Partly Cloudy
12:50 PM 68.0 °F - 32.0 °F 26% 30.19 in 10.0 mi Calm Calm - N/A   Scattered Clouds
1:50 PM 69.8 °F - 30.2 °F 23% 30.17 in 10.0 mi NW 4.6 mph - N/A   Mostly Cloudy
2:50 PM 71.6 °F - 26.6 °F 19% 30.16 in 10.0 mi South 3.5 mph - N/A   Mostly Cloudy
3:50 PM 73.4 °F - 23.0 °F 15% 30.13 in 10.0 mi WNW 10.4 mph - N/A   Mostly Cloudy
4:50 PM 71.6 °F - 26.6 °F 19% 30.13 in 10.0 mi West 11.5 mph 18.4 mph N/A   Mostly Cloudy
5:50 PM 69.8 °F - 41.0 °F 35% 30.11 in 10.0 mi West 11.5 mph 16.1 mph N/A   Mostly Cloudy
6:15 PM 68.0 °F - 41.0 °F 37% 30.11 in 10.0 mi West 15.0 mph 20.7 mph N/A   Scattered Clouds
6:35 PM 68.0 °F - 41.0 °F 37% 30.11 in 10.0 mi West 11.5 mph 17.3 mph N/A   Clear
6:55 PM 66.2 °F - 41.0 °F 40% 30.12 in 10.0 mi West 8.1 mph 18.4 mph N/A   Clear
7:15 PM 64.4 °F - 41.0 °F 42% 30.13 in 10.0 mi West 6.9 mph 10.4 mph N/A   Clear
7:35 PM 62.6 °F - 39.2 °F 42% 30.13 in 10.0 mi West 8.1 mph - N/A   Clear
7:55 PM 62.6 °F - 39.2 °F 42% 30.13 in 10.0 mi WSW 5.8 mph - N/A   Clear
8:15 PM 59.0 °F - 37.4 °F 45% 30.14 in 10.0 mi SSW 3.5 mph - N/A   Clear
8:35 PM 57.2 °F - 37.4 °F 48% 30.14 in 10.0 mi Calm Calm - N/A   Scattered Clouds
8:55 PM 57.2 °F - 37.4 °F 48% 30.16 in 10.0 mi Calm Calm - N/A   Scattered Clouds
9:15 PM 55.4 °F - 37.4 °F 51% 30.16 in 10.0 mi Calm Calm - N/A   Clear
9:35 PM 50.0 °F - 37.4 °F 62% 30.17 in 10.0 mi SE 5.8 mph - N/A   Clear
9:55 PM 50.0 °F - 39.2 °F 66% 30.17 in 10.0 mi SE 5.8 mph - N/A   Clear
10:15 PM 50.0 °F - 37.4 °F 62% 30.17 in 10.0 mi SE 4.6 mph - N/A   Clear
10:35 PM 46.4 °F - 37.4 °F 71% 30.17 in 10.0 mi Calm Calm - N/A   Clear
10:55 PM 46.4 °F - 37.4 °F 71% 30.17 in 10.0 mi Calm Calm - N/A   Clear
11:15 PM 48.2 °F - 37.4 °F 66% 30.17 in 10.0 mi Calm Calm - N/A   Scattered Clouds
11:35 PM 46.4 °F - 39.2 °F 76% 30.16 in 10.0 mi Calm Calm - N/A   Mostly Cloudy
11:55 PM 48.2 °F - 37.4 °F 66% 30.16 in 10.0 mi Calm Calm - N/A   Overcast